Home   Weather   Gorgan   Past weeks

Flag for Iran Past Weather in Gorgan, Iran — Yesterday and Last 2 Weeks

Now
43 °F

Fog.


Feels Like: 43 °F
Forecast: 34 / 50 °F
Wind: No wind

Location: Gorgan Airport

Current Time: Jan 21, 2017 at 10:25:40 am

Latest Report: Jan 21, 2017 at 9:30 am


Visibility: 2 mi

Pressure: 30.27 "Hg

Humidity: 87%

Dew Point: 39 °F

Location of GorganLocation

Past Weather in Gorgan — Graph

°F

Gorgan Temperature Yesterday

Maximum temperature yesterday: 54 °F (at 11:30 am)
Minimum temperature yesterday: 36 °F (at 11:30 pm)
Average temperature yesterday: 45 °F

High & Low Weather Summary for the Past Weeks

 TemperatureHumidityPressure
High70 °F (Jan 9, 2:30 pm)100% (Jan 13, 5:30 am)30.45 "Hg (Jan 13, 5:30 am)
Low27 °F (Jan 13, 7:30 am)24% (Jan 7, 2:30 pm)29.89 "Hg (Jan 9, 12:30 pm)
Average44 °F75%30.19 "Hg
* Reported Jan 6 10:30 pm — Jan 21 8:30 am, Gorgan, Weather by CustomWeather, © 2017

Note: Actual official high and low records may vary slightly from our data, if they occured in-between our weather recording intervals... More about our weather records

Advertising

Gorgan Weather History for the Previous 24 Hours

Scroll right to see more
 ConditionsComfort  
Time TempWeatherWind HumidityBarometerVisibility
8:30 am
Sat, Jan 21
37 °FFog.No wind93%30.27 "Hg2 mi
7:30 am30 °FIce fog.5 mph93%30.24 "Hg2 mi
6:30 am32 °FClear.No wind100%30.24 "Hg10 mi
5:30 am32 °FClear.No wind93%30.21 "Hg10 mi
4:30 am32 °FClear.No wind93%30.21 "Hg10 mi
3:30 am36 °FClear.No wind87%30.24 "Hg10 mi
2:30 am37 °FPassing clouds.No wind87%30.24 "HgN/A
1:30 am37 °FPassing clouds.No wind87%30.24 "HgN/A
12:30 am36 °FPassing clouds.No wind93%30.27 "HgN/A
11:30 pm
Fri, Jan 20
36 °FPassing clouds.No wind81%30.27 "Hg4 mi
10:30 pm39 °FPassing clouds.No wind81%30.30 "HgN/A
9:30 pm41 °FPassing clouds.No wind81%30.30 "Hg4 mi
9:00 pm41 °FPassing clouds.No wind87%30.30 "Hg4 mi
8:30 pm41 °FPassing clouds.5 mph87%30.30 "Hg5 mi
7:30 pm43 °FPassing clouds.5 mph76%30.30 "HgN/A
6:30 pm45 °FPassing clouds.No wind71%30.30 "Hg5 mi
6:00 pm45 °FPassing clouds.5 mph76%30.30 "Hg4 mi
5:30 pm48 °FPartly sunny.7 mph66%30.30 "Hg4 mi
5:00 pm50 °FScattered clouds.No wind62%30.30 "Hg4 mi
4:30 pm52 °FScattered clouds.No wind58%30.30 "Hg4 mi
4:00 pm54 °FScattered clouds.No wind51%30.30 "Hg4 mi
2:30 pm54 °FPassing clouds.No wind54%30.30 "Hg4 mi
1:30 pm54 °FPartly sunny.7 mph58%30.33 "Hg5 mi
12:30 pm52 °FPartly sunny.No wind58%30.36 "Hg5 mi
12:00 pm52 °FPartly sunny.No wind58%30.36 "Hg5 mi
11:30 am54 °FPartly sunny.No wind58%30.36 "Hg4 mi
11:00 am52 °FScattered clouds.No wind67%30.39 "Hg2 mi
Weather by CustomWeather, © 2017

See weather overviewHow to use our weather pages